Theta_e
335 340 341 342 345 350 349 349 349 352 352 353 350 349 350 351 347 351 352 355 355 356 354 352 350 353 348 343 345 339 331 333 334 328 330 332 336 331 327 328 327 329 335
332 337 339 341 343 347 348 348 348 357 354 354 352 351 350 352 350 351 356 354 356 356 352 351 350 350 346 341 336 333 331 333 335 325 326 324 330 333 329 326 325 327 332
330 334 336 339 341 345 348 349 349 357 357 356 353 352 353 352 351 350 357 357 358 357 352 353 351 346 340 338 335 334 333 328 335 331 327 320 319 329 329 329 324 327 324
332 334 337 338 340 345 350 351 352 357 355 356 352 348 345 343 347 352 353 357 358 355 353 352 352 346 342 339 336 337 332 334 327 334 332 328 325 320 322 330 326 329 325
330 333 337 339 342 346 348 354 353 354 356 356 352 351 347 347 350 349 350 354 355 355 356 354 350 341 336 340 338 334 332 335 333 330 332 332 328 326 318 316 324 330 330
329 334 338 340 340 346 350 354 354 354 357 354 354 353 350 348 345 344 351 353 352 352 355 353 345 340 337 339 337 336 335 333 333 330 331 330 323 323 321 319 317 320 326
329 329 335 339 340 344 348 353 354 353 357 355 353 354 351 350 346 348 350 351 351 348 351 349 343 340 337 342 340 339 335 333 331 332 329 331 328 326 324 319 319 318 323
330 330 335 338 340 343 348 352 354 353 357 358 356 353 356 352 350 350 351 351 351 350 350 348 344 341 338 344 341 338 335 336 333 330 330 330 329 329 325 326 321 316 318
329 331 334 337 340 342 348 349 355 355 357 357 359 356 355 356 354 352 351 350 348 349 349 349 345 343 340 338 340 337 334 335 334 329 330 329 328 329 329 326 324 319 314
329 332 333 337 341 343 347 350 356 356 358 356 360 359 357 356 355 355 351 353 348 350 348 349 346 346 341 340 341 335 337 334 335 334 332 330 329 330 329 328 325 325 320
328 332 334 338 342 344 347 349 353 356 357 359 358 360 359 358 356 356 353 351 351 348 348 348 348 344 342 342 340 334 334 336 331 333 330 333 331 329 327 330 327 324 323
329 333 335 336 341 343 344 348 355 356 358 360 359 359 360 360 357 355 354 354 350 351 350 348 347 345 342 340 340 335 335 332 334 332 331 329 334 329 329 333 329 329 328
324 333 333 337 341 343 343 347 352 357 359 361 360 359 358 359 359 356 356 356 356 352 350 350 346 345 343 340 340 336 332 334 334 334 333 331 331 328 331 333 332 328 329
323 328 333 337 339 343 344 345 350 356 359 361 360 358 358 358 359 359 356 357 357 355 348 348 348 346 344 340 340 336 334 335 335 334 335 334 332 331 332 332 331 331 328
324 327 332 334 338 341 343 345 348 351 357 358 358 357 358 359 359 359 359 357 356 355 353 347 348 346 343 340 337 337 336 335 334 334 337 336 337 336 334 333 330 331 329
329 331 333 334 335 338 341 344 346 349 353 355 355 356 357 357 357 358 358 359 356 356 353 351 348 346 346 335 335 338 337 337 335 334 338 336 338 337 335 335 334 334 329
326 330 331 336 336 338 340 342 346 348 350 352 354 354 354 355 356 357 357 357 357 358 356 354 350 346 347 332 330 336 338 336 336 337 337 337 337 335 332 331 330 329 329
325 331 335 338 340 341 341 344 345 346 347 347 351 353 354 354 356 356 357 356 358 357 357 354 348 347 342 329 328 331 334 333 334 338 338 335 334 333 335 332 329 328 329
322 321 331 337 344 343 343 342 342 344 344 344 346 350 352 354 355 356 356 357 357 357 354 349 343 339 338 325 324 327 331 331 331 335 336 335 334 329 323 330 329 329 328
320 321 325 336 342 345 345 342 341 343 341 343 348 350 351 354 356 357 356 355 356 348 348 342 340 333 336 324 321 322 330 330 328 329 335 329 331 322 322 329 327 323 323
320 322 329 338 341 345 347 344 343 341 347 345 358 354 358 360 359 358 354 349 348 348 343 339 338 336 336 332 318 317 331 332 331 329 329 330 322 320 317 318 325 325 315
334 327 338 340 346 346 349 347 346 350 353 359 361 361 362 362 356 351 347 345 347 344 340 338 337 339 335 328 316 315 317 328 330 328 330 328 318 312 315 318 316 311 313
346 348 350 351 353 351 352 352 355 357 357 358 357 356 354 351 349 346 345 344 342 341 338 337 335 333 337 330 316 313 313 317 324 327 321 313 312 313 314 314 313 313 310
344 348 348 348 350 353 354 354 354 356 356 353 350 350 349 346 347 345 344 343 340 339 338 337 333 333 332 327 321 320 318 318 318 317 315 316 315 314 313 311 310 308 308
342 347 348 349 350 352 353 354 355 354 350 347 344 344 344 337 321 312 317 331 315 325 334 335 334 332 331 330 322 320 321 319 315 316 314 311 310 309 309 311 312 312 312
342 347 348 348 349 351 351 350 350 348 345 341 340 340 334 329 325 321 314 301 301 300 301 308 321 312 314 308 306 307 309 308 308 316 315 312 313 313 314 313 312 314 316
Wind_Speed
16 15 14 13 12 14 16 15 12 15 10 6 6 3 4 3 3 5 8 7 7 7 6 4 3 3 3 4 4 2 2 2 1 2 4 3 2 5 3 5 4 6 4
19 19 18 18 16 15 16 14 12 14 13 9 6 4 4 3 5 4 5 7 8 7 6 5 3 3 3 3 4 3 1 2 1 3 2 2 3 3 2 4 4 6 4
23 20 21 19 17 18 17 16 15 12 13 12 6 3 2 1 2 2 4 8 10 8 7 7 5 4 4 5 4 3 3 1 3 2 4 3 1 1 2 3 3 5 3
23 21 24 20 21 17 17 17 16 14 11 13 11 8 5 5 4 5 6 5 7 8 7 7 7 6 4 5 5 4 3 4 1 2 2 3 4 3 1 2 2 3 4
23 25 25 25 23 20 20 19 18 16 14 12 12 8 6 7 5 3 7 6 6 8 9 7 8 6 5 4 6 5 5 4 4 3 1 1 1 2 3 2 2 1 2
23 23 25 23 20 18 19 18 20 18 15 15 11 13 11 8 7 5 4 7 7 5 7 8 8 7 6 6 4 3 3 1 2 1 3 2 2 3 2 2 2 1 1
21 21 24 22 22 20 21 19 21 19 17 18 16 12 13 11 9 7 6 8 7 4 7 9 8 6 6 6 7 7 5 3 2 2 1 1 1 2 3 3 0 2 2
22 25 25 25 24 21 21 21 22 21 19 18 17 15 10 10 9 7 5 7 9 9 10 10 10 9 8 7 5 3 4 6 5 6 5 3 1 0 1 3 5 1 2
20 23 23 24 23 22 23 24 22 21 21 20 17 16 14 12 11 8 6 6 9 9 11 12 12 11 9 8 7 5 6 5 5 5 4 3 3 2 1 2 4 5 2
19 19 22 24 23 24 21 23 22 24 22 20 16 15 16 16 13 7 9 8 7 7 13 12 13 11 11 8 8 6 5 6 4 4 6 5 2 2 3 1 2 2 4
25 24 24 23 23 22 21 22 23 23 20 20 18 17 16 15 14 9 9 9 8 9 13 13 13 13 12 11 8 8 7 8 7 5 6 6 5 3 2 2 2 1 2
30 23 24 23 22 24 23 22 21 23 22 21 19 18 17 15 14 15 11 9 12 10 14 14 13 14 13 12 12 10 8 8 7 7 6 7 4 5 5 3 3 2 3
10 19 21 21 21 22 23 22 21 21 21 20 19 18 17 16 17 16 14 11 12 12 13 15 16 15 14 13 12 11 7 7 9 7 7 7 6 6 5 5 4 3 2
8 13 22 24 24 23 23 22 21 21 21 20 19 19 19 19 18 17 16 14 12 11 13 14 15 14 13 12 11 10 9 7 7 7 8 9 8 7 7 5 6 4 4
9 10 18 19 21 21 22 22 21 22 22 21 20 20 19 17 16 16 15 14 13 11 9 10 11 10 9 9 8 11 10 8 7 7 7 10 10 13 10 5 6 6 4
7 8 18 24 22 21 20 21 22 22 22 21 21 19 17 17 16 15 14 13 13 10 11 10 10 10 8 14 17 14 10 8 8 9 8 8 11 12 14 14 11 9 7
9 9 10 20 19 20 21 22 23 22 22 20 20 20 18 17 17 14 13 12 13 11 11 12 10 10 11 12 10 13 8 10 10 10 10 7 8 10 7 10 10 8 11
5 7 12 9 16 17 20 22 20 21 21 20 20 20 18 19 16 16 14 14 11 13 10 10 8 8 6 11 6 10 6 7 8 10 9 8 7 7 7 6 7 6 6
14 5 6 9 11 20 20 18 19 19 20 19 19 21 19 18 17 16 15 12 9 9 8 7 9 10 8 11 9 8 5 5 7 5 7 7 6 8 4 4 5 6 6
17 15 13 10 15 14 19 20 21 19 21 21 19 17 18 16 16 15 13 6 9 6 7 7 8 9 9 13 13 9 4 6 5 6 7 9 6 2 7 4 6 6 5
11 12 12 15 15 12 19 20 20 22 16 15 10 13 14 15 15 12 11 10 9 9 7 8 9 10 10 7 13 13 7 7 4 4 4 4 10 10 8 8 5 5 4
3 10 10 12 11 10 17 14 16 11 13 13 13 13 14 11 11 15 10 8 10 10 8 8 6 5 6 7 9 12 14 6 5 3 4 5 9 9 11 7 6 8 4
8 6 9 11 10 10 13 14 10 15 15 15 14 14 14 13 12 12 12 9 9 8 7 7 5 4 4 4 3 6 8 5 4 3 3 5 6 9 7 10 11 8 3
9 13 13 12 11 13 12 15 14 16 17 16 14 13 14 12 10 7 7 9 7 6 6 6 5 4 4 4 3 3 3 6 4 6 5 5 6 7 5 5 5 4 4
5 14 18 15 13 14 15 14 15 18 17 15 12 12 10 11 10 9 5 6 5 3 5 4 6 6 5 4 7 8 6 5 6 6 3 2 3 3 3 2 4 4 3
12 14 15 19 16 16 16 15 15 17 17 14 9 9 10 9 9 9 8 16 10 6 7 5 8 2 3 13 12 11 9 11 11 2 3 4 4 4 5 5 4 3 5
Wind_Direction
189 180 175 174 158 162 164 170 153 173 167 167 162 163 188 208 206 188 185 176 168 186 182 185 163 182 148 177 151 131 70 323 202 66 349 327 274 88 115 113 69 57 106
184 177 182 180 172 172 173 173 170 153 172 173 175 161 164 192 196 200 171 172 176 178 172 168 192 238 151 134 123 115 44 317 31 131 105 22 351 15 136 93 95 76 73
184 179 184 183 179 175 177 179 178 159 165 165 164 136 102 42 179 181 170 177 181 174 159 172 138 132 111 154 147 152 121 54 317 67 133 61 196 15 333 114 151 133 117
185 180 182 184 183 179 175 176 176 171 166 156 163 162 174 193 221 191 193 184 176 163 172 163 158 147 132 148 162 151 143 118 348 347 44 110 148 123 59 330 224 131 165
183 184 186 188 185 175 179 176 178 178 172 161 166 171 180 201 224 210 180 168 167 167 159 171 141 149 142 161 153 155 161 156 146 171 155 148 117 104 129 216 286 278 242
189 187 188 184 187 177 175 173 173 179 173 177 166 178 186 197 212 218 167 173 173 171 183 152 149 156 154 162 153 147 159 133 44 129 118 112 163 199 150 121 263 159 109
196 188 187 187 185 178 176 173 175 178 176 181 186 178 189 203 202 203 169 165 171 173 170 150 156 163 157 176 175 162 164 164 151 229 156 113 128 173 134 122 175 91 276
199 191 187 188 186 179 176 174 178 180 181 180 186 192 182 204 216 206 171 180 177 179 164 165 164 167 167 171 161 176 168 180 198 192 171 168 235 241 152 166 144 9 323
215 205 186 188 183 180 178 178 176 180 183 182 184 190 194 202 208 200 188 178 181 171 175 170 170 170 179 170 164 174 188 189 195 212 210 200 209 153 116 98 142 151 199
212 219 189 186 185 183 175 177 175 180 182 187 185 189 195 204 208 181 204 178 192 154 172 172 173 169 182 172 173 176 194 190 208 202 205 230 244 207 144 169 158 146 167
196 192 188 185 183 179 176 177 176 177 182 185 189 188 197 200 204 198 199 184 184 163 171 174 176 180 179 184 177 182 186 193 203 202 201 235 231 209 195 149 101 127 146
205 193 183 178 175 181 178 180 175 179 183 185 187 192 194 196 198 207 202 183 193 173 177 180 180 185 189 185 183 185 192 191 200 204 191 214 215 210 217 185 191 171 217
163 181 176 174 175 181 180 178 177 180 183 183 187 191 195 196 200 204 202 191 195 189 184 182 187 189 189 187 188 184 182 189 203 197 205 211 206 225 226 219 217 187 214
183 174 173 175 180 178 179 182 181 177 180 184 188 192 196 202 202 202 202 202 198 188 184 188 189 192 190 187 183 176 181 188 197 203 200 205 206 219 217 201 207 208 222
223 172 171 173 181 178 181 182 182 181 179 184 189 195 198 202 204 206 202 203 200 195 179 173 182 183 177 181 167 182 187 188 198 208 207 212 210 219 206 189 215 206 216
190 178 169 174 178 180 181 180 181 185 183 186 192 194 195 198 202 201 200 196 198 191 179 178 174 175 182 184 182 183 185 181 199 216 221 211 218 219 207 205 202 201 207
191 197 170 181 179 182 180 181 183 181 186 189 188 192 194 196 199 193 193 189 192 189 181 188 175 176 184 195 192 182 184 190 204 213 217 221 221 209 206 211 226 261 249
200 226 192 163 182 186 184 187 176 182 186 189 190 189 190 197 191 191 188 193 185 191 184 181 165 171 151 144 179 209 197 187 197 206 205 209 227 207 193 211 212 233 240
249 180 236 187 175 177 181 179 182 182 185 187 191 190 187 189 189 186 186 184 169 174 165 157 144 141 153 167 188 183 192 213 226 219 212 202 215 224 198 222 246 247 260
197 206 219 212 184 178 175 172 178 179 189 192 192 185 185 182 179 173 171 138 143 142 134 127 146 156 177 194 202 188 203 217 219 228 216 189 192 118 164 205 232 248 260
202 195 185 176 192 172 169 178 178 188 182 181 145 164 170 163 156 140 136 134 134 129 137 150 158 169 191 188 196 197 204 219 199 211 209 200 172 189 169 201 232 217 147
342 201 164 164 161 163 159 163 173 148 141 130 132 132 137 134 128 129 135 140 132 135 149 155 159 182 179 178 195 199 206 199 188 201 227 225 228 166 168 203 221 180 178
102 55 126 127 128 126 138 127 134 122 121 116 117 117 110 113 120 129 132 129 127 136 154 153 161 163 159 158 158 166 172 178 137 138 132 134 160 163 189 217 204 183 186
120 103 81 71 68 97 103 117 119 116 114 113 110 110 114 118 120 126 128 125 131 142 152 161 153 158 154 145 145 142 141 146 138 130 142 172 170 178 194 196 201 202 213
81 110 113 103 95 92 97 106 109 111 107 107 110 108 106 100 84 63 42 105 58 99 150 164 146 158 166 184 165 160 163 163 165 127 110 142 194 203 232 237 204 205 216
297 93 95 101 100 95 92 94 102 108 115 111 118 113 115 112 111 110 86 46 62 57 74 162 132 79 176 148 148 149 154 163 152 125 167 204 213 217 209 198 209 206 212